Overview Statistics Trail Chart Weather Telemetry Raw packets
 

This is the latest recevied weather packets stored in our database for station/object KE6JJJ-1. If no packets are shown the sender has not sent any weather packets the latest 10 day(s).

<< 13 14 15 16 17 18 19 >>
Time Temp. Humidity Pressure Rain* Wind** Luminosity Snow
1787974503 15.56° C 85% 1014.1 hPa 0 mm - 0 W/m² -
1787972703 16.67° C 82% 1014.1 hPa 0 mm - 0 W/m² -
1787970903 17.78° C 79% 1014.3 hPa 0 mm - 11 W/m² -
1787969103 18.33° C 76% 1014.3 hPa 0 mm - 63 W/m² -
1787967303 20° C 73% 1014.5 hPa 0 mm - 144 W/m² -
1787965503 21.11° C 70% 1014.4 hPa 0 mm - 251 W/m² -
1787963703 22.22° C 70% 1014.6 hPa 0 mm - 394 W/m² -
1787961904 19.44° C 77% 1014.6 hPa 0 mm - 554 W/m² -
1787958304 17.78° C 80% 1014.9 hPa 0 mm - 209 W/m² -
1787956503 17.22° C 81% 1015.1 hPa 0 mm - 311 W/m² -
1787954706 17.78° C 80% 1015.8 hPa 0 mm - 255 W/m² -
1787951103 17.22° C 82% 1016.2 hPa 0 mm - 432 W/m² -
1787949303 16.67° C 84% 1016.6 hPa 0 mm - 271 W/m² -
1787947503 16.67° C 85% 1016.6 hPa 0 mm - 180 W/m² -
1787943903 16.67° C 85% 1016.7 hPa 0 mm - 104 W/m² -
1787942106 16.67° C 86% 1016.4 hPa 0 mm - 130 W/m² -
1787940303 16.67° C 88% 1016.2 hPa 0 mm - 213 W/m² -
1787938503 16.11° C 89% 1016.3 hPa 0 mm - 265 W/m² -
1787936703 15.56° C 89% 1016.2 hPa 0 mm - 88 W/m² -
1787934903 15.56° C 90% 1015.9 hPa 0 mm - 72 W/m² -
1787933103 15.56° C 90% 1015.7 hPa 0 mm - 75 W/m² -
1787931304 15° C 90% 1015.5 hPa 0 mm - 98 W/m² -
1787929503 15° C 90% 1015.7 hPa 0 mm - 26 W/m² -
1787927703 14.44° C 90% 1014.5 hPa 0 mm - 18 W/m² -
1787925913 15° C 90% 1013.5 hPa 0 mm - 7 W/m² -

* Rain latest hour (hover to see other rain measurements)
** Current wind speed in m/s (hover to see current wind gust speed)